Regional Weather Roundup
Issued by NWS

Home | Current Version | Previous Version | Graphics & Text | Print | Product List | Glossary On
Versions: 1 2 3 4 5 6 7 8 9 10 11 12 13 14 15 16 17 18 19 20 21 22 23 24 25 26 27 28 29 30 31 32 33 34 35 36 37 38 39 40 41 42 43 44 45 46 47 48 49 50
000
ASUS43 KLOT 280700
RWRIL

ILLINOIS REGIONAL WEATHER ROUNDUP
NATIONAL WEATHER SERVICE CHICAGO/ROMEOVILLE IL
100 AM CST WED JAN 28 2015

NOTE: "FAIR" INDICATES FEW OR NO CLOUDS BELOW 12,000 FEET WITH NO
SIGNIFICANT WEATHER AND/OR OBSTRUCTIONS TO VISIBILITY.

* THESE STATIONS ARE NOT UNDER NWS QUALITY CONTROL. THEY ALSO MAY NOT
  REPORT WEATHER SUCH AS PRECIPITATION OR FOG.

ILZ001-002-007-009-015-016-024-280800-
NORTHWEST ILLINOIS

CITY           SKY/WX    TMP DP  RH WIND       PRES   REMARKS
MOLINE         CLOUDY    28  23  81 S8        30.23F WCI  20
STERLING*      CLOUDY    21  18  86 E5        30.25S WCI  15
$$

ILZ003-004-008-010-011-017-018-280800-
NORTH CENTRAL ILLINOIS

CITY           SKY/WX    TMP DP  RH WIND       PRES   REMARKS
ROCKFORD       MOCLDY    22  16  78 SE3       30.27F
$$

ILZ005-006-012>014-019>023-280800-
NORTHEAST ILLINOIS

CITY           SKY/WX    TMP DP  RH WIND       PRES   REMARKS
CHICAGO-OHARE  MOCLDY    24  19  81 CALM      30.25S
CHICAGO-MIDWAY CLOUDY    26  21  81 W3        30.27R
AURORA         FAIR      21  16  81 CALM      30.26F
WAUKEGAN       MOCLDY    22  18  85 CALM      30.25R
DUPAGE AIRPORT PTCLDY    20  16  84 CALM      30.26R
WHEELING       MOCLDY    23  18  81 CALM      30.27F
NORTHERLY ISL    N/A     28  19  69 CALM        N/A
$$

LMZ740>746-280800-
SOUTHERN LAKE MICHIGAN

STATION/POSITION SKY/WX   TEMP    WIND        PRES    VSBY  WAVE
                          AIR SEA DIR/SP/G                  HT/PER
                          (F)     (DEG/KT/KT) (MB)    (MI)  (FT/S)
WAUKEGAN HARBOR            26      CALM  /  6   N/A
HARRISON CRIB              28     100/  2/  2   N/A
BURNHAM HARBOR             28      CALM  /  5   N/A
CALUMET HARBOR             27      CALM  /  1   N/A
MICHIGAN CITY              22     120/  6/  7   N/A
$$

ILZ025>027-034>036-040-047-049-050-058-095>099-280800-
WEST-CENTRAL ILLINOIS

CITY           SKY/WX    TMP DP  RH WIND       PRES   REMARKS
QUINCY         MOCLDY    29  26  89 SE9       30.21F FOG     WCI  20
$$

ILZ028>032-037-038-041>044-048-051>054-059>061-280800-
CENTRAL ILLINOIS

CITY           SKY/WX    TMP DP  RH WIND       PRES   REMARKS
BLOOMINGTON    PTCLDY    27  25  93 SE5       30.26S WCI  21
DECATUR        CLEAR     24  21  88 E8        30.26S WCI  15
PEORIA         CLOUDY    31  24  75 S8        30.25F WCI  23
SPRINGFIELD    CLEAR     26  22  84 SE6       30.26S WCI  19
TAYLORVILLE    NOT AVBL
$$

ILZ033-039-045-046-055>057-062-063-280800-
EAST-CENTRAL ILLINOIS

CITY           SKY/WX    TMP DP  RH WIND       PRES   REMARKS
CHAMPAIGN      CLEAR     21  18  88 CALM      30.27S FOG
MATTOON        CLEAR     21  18  88 CALM      30.26S
$$

ILZ079-100>102-280800-
SOUTHWEST ILLINOIS

CITY           SKY/WX    TMP DP  RH WIND       PRES   REMARKS
BELLEVILLE     CLEAR     25  25  99 SE2       30.25S
CAHOKIA*       CLEAR     28  25  88 CALM      30.26S
$$

ILZ064>066-069>071-074>076-080>082-084>086-088>090-092>094-280800-
SOUTH-CENTRAL ILLINOIS

CITY           SKY/WX    TMP DP  RH WIND       PRES   REMARKS
CARBONDALE     CLEAR     28  25  88 E3        30.26S
MT. VERNON     CLEAR     27  21  80 E5        30.26F WCI  21
$$

ILZ067-068-072-073-078-083-087-091-280800-
SOUTHEAST ILLINOIS

CITY           SKY/WX    TMP DP  RH WIND       PRES   REMARKS
LAWRENCEVILLE  CLEAR     26  22  84 NE5       30.29F WCI  20
$$

ABBREVIATIONS USED IN REMARKS
   TC - TEMPERATURE IN CELSIUS
  WCI - WIND CHILL INDEX
   HX - HEAT INDEX
  VSB - VISIBILITY
$$



USA.gov is the U.S. government's official web portal to all federal, state and local government web resources and services.